Location: Mohawk View
(42.7837°N, 73.7885°W)
Time: 16:53:18
(UTC+00:00)

NOSS 2-3 (C) - Pass Details

Date: 17 June 2021
Orbit: 555 x 1656 km, 63.4° (Epoch: 28 July)

Event Time Altitude Azimuth Distance (km) Brightness Sun altitude
Exits shadow 05:37:54 70° 114° (ESE) 635 3.4 -23.1°
Drops below altitude 10° 05:42:25 10° 40° (NE) 2,104 7.1 -23.0°
Sets 05:44:58 0° 38° (NE) 3,157 8.2 -22.9°
